Terminal Aerodrome Forecast
Issued by NWS

Home | Current Version | Previous Version | Text Only | Print | Product List | Glossary On
Versions: 1 2 3 4 5 6 7 8 9 10 11 12 13 14 15 16 17 18 19 20 21 22
000
FTUS46 KEKA 010536
TAFCEC
TAF
KCEC 010536Z 0106/0206 18008KT 6SM BR SCT007
     FM011000 VRB04KT 4SM BR SCT004
      TEMPO 0111/0114 BKN004
     FM011600 26005KT 6SM BR SCT004
     FM011900 29010KT P6SM SKC
     FM020200 33007KT P6SM SKC=

USA.gov is the U.S. government's official web portal to all federal, state and local government web resources and services.